Location: Observatoire
(46.1952°N, 5.3391°E)
Time: 23:41:39
(UTC+01:00)

Courier 1B Rocket - Pass Details

Date: 17 February 2026
Orbit: 920 x 1201 km, 28.2° (Epoch: 11 March)

Event Time Altitude Azimuth Distance (km) Brightness Sun altitude
Rises 00:37:07 0° 245° (WSW) 3,714 - -55.7°
Reaches altitude 10° 00:42:32 10° 209° (SSW) 2,843 - -55.8°
Maximum altitude 00:43:57 11° 197° (SSW) 2,815 - -55.8°
Drops below altitude 10° 00:45:23 10° 185° (S) 2,886 - -55.8°
Sets 00:51:06 0° 150° (SSE) 3,927 - -55.9°
